When you browse on this site, cookies collect data to enhance your experience and personalize the content and advertising you see.
Visit our Privacy Policy to learn more. By continuing to use the site, you agree to this use of cookies and data.
  • Em Portugal
  • Lista de países
  • Para 7 dias
  • Temperatura da água
  • Mapas de satélite
  • Mapa do tempo
  • Widgets de tempo
  • user-avatar
    Iniciar Sessão

    Previsão horária em Grzybowo

    Hoje, 16 Junho, Domingo

    Tempo Temperatura Precipitação Vento Pressão Humidade
    00:00 +22°C° 4.4 mm 3 m/s 748 mmHg 94%
    01:00 +21°C° 0 mm 2 m/s 748 mmHg 95%
    02:00 +21°C° 0.4 mm 2 m/s 748 mmHg 96%
    03:00 +21°C° 0.4 mm 2 m/s 748 mmHg 97%
    04:00 +21°C° 0.4 mm 2 m/s 747 mmHg 98%
    05:00 +21°C° 0 mm 2 m/s 748 mmHg 96%
    06:00 +22°C° 0 mm 3 m/s 748 mmHg 94%
    07:00 +22°C° 0 mm 3 m/s 749 mmHg 92%
    08:00 +23°C° 0 mm 4 m/s 749 mmHg 89%
    09:00 +23°C° 0 mm 5 m/s 749 mmHg 86%
    10:00 +23°C° 0 mm 6 m/s 749 mmHg 83%
    11:00 +24°C° 0 mm 6 m/s 750 mmHg 80%
    12:00 +24°C° 0 mm 6 m/s 750 mmHg 78%
    13:00 +26°C° 0 mm 6 m/s 750 mmHg 75%
    14:00 +24°C° 0 mm 6 m/s 750 mmHg 76%
    15:00 +23°C° 0 mm 6 m/s 750 mmHg 77%
    16:00 +22°C° 0 mm 6 m/s 750 mmHg 77%
    17:00 +22°C° 0 mm 5 m/s 751 mmHg 79%
    18:00 +21°C° 0 mm 4 m/s 751 mmHg 81%
    19:00 +21°C° 0 mm 4 m/s 751 mmHg 83%
    20:00 +19°C° 0 mm 4 m/s 752 mmHg 86%
    21:00 +18°C° 0 mm 4 m/s 752 mmHg 89%
    22:00 +17°C° 0 mm 4 m/s 752 mmHg 92%
    23:00 +17°C° 0 mm 3 m/s 752 mmHg 93%

    Amanhã, 17 Junho, Segunda-feira

    Tempo Temperatura Precipitação Vento Pressão Humidade
    00:00 +16°C° 0 mm 3 m/s 752 mmHg 94%
    01:00 +14°C° 0 mm 3 m/s 752 mmHg 95%
    02:00 +14°C° 0 mm 3 m/s 752 mmHg 94%
    03:00 +14°C° 0 mm 3 m/s 752 mmHg 93%
    04:00 +13°C° 0 mm 3 m/s 753 mmHg 91%
    05:00 +14°C° 0 mm 4 m/s 753 mmHg 88%
    06:00 +15°C° 0 mm 4 m/s 753 mmHg 85%
    07:00 +17°C° 0 mm 4 m/s 754 mmHg 83%
    08:00 +17°C° 0 mm 5 m/s 754 mmHg 82%
    09:00 +19°C° 0 mm 5 m/s 754 mmHg 81%
    10:00 +20°C° 0 mm 5 m/s 754 mmHg 80%
    11:00 +21°C° 0 mm 4 m/s 754 mmHg 77%
    12:00 +21°C° 0 mm 4 m/s 754 mmHg 73%
    13:00 +22°C° 0 mm 4 m/s 754 mmHg 70%
    14:00 +23°C° 0.1 mm 4 m/s 754 mmHg 69%
    15:00 +23°C° 0.1 mm 4 m/s 754 mmHg 69%
    16:00 +23°C° 0.1 mm 4 m/s 754 mmHg 69%
    17:00 +22°C° 0 mm 4 m/s 754 mmHg 73%
    18:00 +21°C° 0 mm 3 m/s 754 mmHg 77%
    19:00 +19°C° 0 mm 3 m/s 754 mmHg 81%
    20:00 +18°C° 0 mm 3 m/s 754 mmHg 83%
    21:00 +16°C° 0 mm 3 m/s 754 mmHg 86%
    22:00 +14°C° 0 mm 3 m/s 755 mmHg 88%
    23:00 +13°C° 0 mm 3 m/s 755 mmHg 89%

    Depois de amanhã, 18 Junho, Terça-feira

    Tempo Temperatura Precipitação Vento Pressão Humidade
    00:00 +14°C° 0 mm 2 m/s 755 mmHg 91%
    01:00 +13°C° 0 mm 2 m/s 755 mmHg 92%
    02:00 +13°C° 0 mm 2 m/s 755 mmHg 91%
    03:00 +13°C° 0 mm 2 m/s 755 mmHg 91%
    04:00 +13°C° 0 mm 2 m/s 755 mmHg 90%
    05:00 +14°C° 0 mm 2 m/s 755 mmHg 85%
    06:00 +16°C° 0 mm 2 m/s 755 mmHg 81%
    07:00 +18°C° 0 mm 2 m/s 755 mmHg 76%
    08:00 +19°C° 0 mm 2 m/s 755 mmHg 72%
    09:00 +20°C° 0 mm 2 m/s 755 mmHg 68%
    10:00 +21°C° 0 mm 2 m/s 755 mmHg 64%
    11:00 +24°C° 0 mm 2 m/s 754 mmHg 65%
    12:00 +25°C° 0 mm 2 m/s 754 mmHg 64%
    13:00 +26°C° 0 mm 2 m/s 754 mmHg 62%
    14:00 +26°C° 0.1 mm 3 m/s 753 mmHg 64%
    15:00 +25°C° 0.1 mm 3 m/s 753 mmHg 66%
    16:00 +25°C° 0.1 mm 3 m/s 753 mmHg 68%
    17:00 +24°C° 0 mm 3 m/s 752 mmHg 73%
    18:00 +22°C° 0 mm 3 m/s 752 mmHg 78%
    19:00 +21°C° 0 mm 2 m/s 752 mmHg 82%
    20:00 +20°C° 0 mm 3 m/s 752 mmHg 84%
    21:00 +19°C° 0 mm 3 m/s 752 mmHg 86%
    22:00 +18°C° 0 mm 3 m/s 752 mmHg 88%
    23:00 +18°C° 0 mm 3 m/s 752 mmHg 89%

    19 Junho, Quarta-feira

    Tempo Temperatura Precipitação Vento Pressão Humidade
    00:00 +18°C° 0 mm 3 m/s 752 mmHg 90%
    01:00 +17°C° 0 mm 3 m/s 751 mmHg 91%
    02:00 +17°C° 0 mm 3 m/s 751 mmHg 92%
    03:00 +17°C° 0 mm 3 m/s 751 mmHg 92%
    04:00 +18°C° 0 mm 3 m/s 751 mmHg 93%
    05:00 +19°C° 0 mm 3 m/s 751 mmHg 90%
    06:00 +20°C° 0 mm 4 m/s 751 mmHg 86%
    07:00 +21°C° 0 mm 4 m/s 750 mmHg 83%
    08:00 +21°C° 0 mm 5 m/s 750 mmHg 81%
    09:00 +22°C° 0 mm 5 m/s 750 mmHg 80%
    10:00 +23°C° 0 mm 5 m/s 750 mmHg 78%
    11:00 +23°C° 0.4 mm 5 m/s 750 mmHg 81%
    12:00 +22°C° 0.4 mm 5 m/s 749 mmHg 84%
    13:00 +22°C° 0.4 mm 5 m/s 749 mmHg 87%
    14:00 +22°C° 1.6 mm 4 m/s 748 mmHg 86%
    15:00 +23°C° 1.6 mm 4 m/s 748 mmHg 85%
    16:00 +25°C° 1.6 mm 4 m/s 748 mmHg 84%
    17:00 +24°C° 1.1 mm 3 m/s 748 mmHg 85%
    18:00 +24°C° 1.1 mm 2 m/s 748 mmHg 86%
    19:00 +24°C° 1.1 mm 2 m/s 747 mmHg 87%
    20:00 +23°C° 0.4 mm 2 m/s 747 mmHg 89%
    21:00 +22°C° 0.4 mm 1 m/s 747 mmHg 90%
    22:00 +22°C° 0.4 mm 1 m/s 748 mmHg 92%
    23:00 +20°C° 0 mm 2 m/s 747 mmHg 92%

    20 Junho, Quinta-feira

    Tempo Temperatura Precipitação Vento Pressão Humidade
    00:00 +20°C° 0 mm 2 m/s 747 mmHg 93%
    01:00 +20°C° 0 mm 3 m/s 747 mmHg 93%
    02:00 +19°C° 0.1 mm 2 m/s 747 mmHg 93%
    03:00 +19°C° 0.1 mm 2 m/s 747 mmHg 93%
    04:00 +19°C° 0.1 mm 2 m/s 747 mmHg 94%
    05:00 +20°C° 0 mm 2 m/s 747 mmHg 90%
    06:00 +23°C° 0 mm 2 m/s 747 mmHg 86%
    07:00 +24°C° 0 mm 1 m/s 747 mmHg 82%
    08:00 +25°C° 0 mm 2 m/s 748 mmHg 78%
    09:00 +26°C° 0 mm 2 m/s 748 mmHg 73%
    10:00 +28°C° 0 mm 2 m/s 748 mmHg 68%
    11:00 +28°C° 0.1 mm 2 m/s 748 mmHg 64%
    12:00 +29°C° 0.1 mm 2 m/s 748 mmHg 61%
    13:00 +30°C° 0.1 mm 2 m/s 748 mmHg 57%
    14:00 +30°C° 0 mm 2 m/s 748 mmHg 57%
    15:00 +30°C° 0 mm 2 m/s 748 mmHg 56%
    16:00 +30°C° 0 mm 1 m/s 748 mmHg 56%
    17:00 +29°C° 0.1 mm 1 m/s 748 mmHg 61%
    18:00 +28°C° 0.1 mm 1 m/s 748 mmHg 66%
    19:00 +26°C° 0.1 mm 1 m/s 748 mmHg 72%
    20:00 +25°C° 0.3 mm 1 m/s 748 mmHg 75%
    21:00 +24°C° 0.3 mm 1 m/s 748 mmHg 78%
    22:00 +22°C° 0.3 mm 1 m/s 749 mmHg 81%
    23:00 +22°C° 0.1 mm 1 m/s 749 mmHg 83%

    21 Junho, Sexta-feira

    Tempo Temperatura Precipitação Vento Pressão Humidade
    00:00 +21°C° 0.1 mm 1 m/s 749 mmHg 86%
    01:00 +21°C° 0.1 mm 1 m/s 749 mmHg 88%
    02:00 +20°C° 0 mm 1 m/s 749 mmHg 88%
    03:00 +20°C° 0 mm 1 m/s 749 mmHg 88%
    04:00 +20°C° 0 mm 1 m/s 749 mmHg 88%
    05:00 +22°C° 0.1 mm 1 m/s 750 mmHg 84%
    06:00 +23°C° 0.1 mm 1 m/s 750 mmHg 81%
    07:00 +24°C° 0.1 mm 2 m/s 750 mmHg 78%
    08:00 +25°C° 0 mm 1 m/s 750 mmHg 73%
    09:00 +27°C° 0 mm 1 m/s 751 mmHg 68%
    10:00 +28°C° 0 mm 1 m/s 751 mmHg 64%
    11:00 +29°C° 0 mm 1 m/s 751 mmHg 60%
    12:00 +30°C° 0 mm 1 m/s 750 mmHg 57%
    13:00 +28°C° 0 mm 0 m/s 750 mmHg 53%
    14:00 +30°C° 0 mm 1 m/s 750 mmHg 54%
    15:00 +30°C° 0 mm 1 m/s 750 mmHg 54%
    16:00 +30°C° 0 mm 2 m/s 749 mmHg 54%
    17:00 +29°C° 0.4 mm 2 m/s 749 mmHg 63%
    18:00 +27°C° 0.4 mm 2 m/s 749 mmHg 71%
    19:00 +26°C° 0.4 mm 3 m/s 749 mmHg 79%
    20:00 +24°C° 0.3 mm 3 m/s 749 mmHg 82%
    21:00 +22°C° 0.3 mm 3 m/s 749 mmHg 85%
    22:00 +21°C° 0.3 mm 3 m/s 748 mmHg 88%
    23:00 +21°C° 0.9 mm 2 m/s 748 mmHg 90%
    Mostrar mais